Météo par heure à Dzhuryntsi

Ce jour, 24 Janvier, Dimanche

Heure Température Précipitation Vent Pression Humidité
00:00 +1°C° 0 mm 6 m/s 730 mmHg 95%
01:00 +2°C° 0 mm 6 m/s 730 mmHg 96%
02:00 +2°C° 0 mm 6 m/s 730 mmHg 97%
03:00 +2°C° 0 mm 6 m/s 729 mmHg 96%
04:00 +3°C° 0 mm 7 m/s 729 mmHg 95%
05:00 +3°C° 0 mm 7 m/s 728 mmHg 94%
06:00 +3°C° 0.2 mm 7 m/s 728 mmHg 94%
07:00 +3°C° 0.2 mm 7 m/s 728 mmHg 94%
08:00 +2°C° 0.2 mm 8 m/s 727 mmHg 94%
09:00 +2°C° 0.4 mm 8 m/s 727 mmHg 94%
10:00 +2°C° 0.4 mm 8 m/s 726 mmHg 94%
11:00 +2°C° 0.4 mm 8 m/s 726 mmHg 94%
12:00 +4°C° 0.3 mm 8 m/s 726 mmHg 93%
13:00 +3°C° 0.3 mm 9 m/s 725 mmHg 91%
14:00 +3°C° 0.3 mm 9 m/s 725 mmHg 90%
15:00 +2°C° 0.2 mm 8 m/s 725 mmHg 89%
16:00 +3°C° 0.2 mm 6 m/s 726 mmHg 88%
17:00 +2°C° 0.2 mm 5 m/s 726 mmHg 87%
18:00 +3°C° 0 mm 4 m/s 727 mmHg 87%
19:00 +1°C° 0 mm 4 m/s 727 mmHg 88%
20:00 +1°C° 0 mm 4 m/s 728 mmHg 88%
21:00 +1°C° 0 mm 4 m/s 728 mmHg 89%
22:00 +1°C° 0 mm 4 m/s 728 mmHg 90%
23:00 +1°C° 0 mm 3 m/s 728 mmHg 92%

Demain, 25 Janvier, Lundi

Heure Température Précipitation Vent Pression Humidité
00:00 +1°C° 0 mm 3 m/s 728 mmHg 93%
01:00 +1°C° 0 mm 3 m/s 728 mmHg 94%
02:00 +2°C° 0 mm 2 m/s 728 mmHg 95%
03:00 +2°C° 0 mm 2 m/s 728 mmHg 95%
04:00 +1°C° 0 mm 2 m/s 728 mmHg 95%
05:00 +1°C° 0 mm 2 m/s 728 mmHg 95%
06:00 +1°C° 0 mm 2 m/s 728 mmHg 95%
07:00 0°C° 0 mm 3 m/s 728 mmHg 94%
08:00 0°C° 0 mm 3 m/s 728 mmHg 93%
09:00 +1°C° 0 mm 3 m/s 728 mmHg 91%
10:00 +1°C° 0 mm 4 m/s 728 mmHg 89%
11:00 +2°C° 0 mm 5 m/s 727 mmHg 88%
12:00 +2°C° 0.4 mm 5 m/s 726 mmHg 91%
13:00 +3°C° 0.4 mm 5 m/s 725 mmHg 94%
14:00 +3°C° 0.4 mm 5 m/s 724 mmHg 97%
15:00 +3°C° 0.8 mm 6 m/s 723 mmHg 96%
16:00 +4°C° 0.8 mm 7 m/s 722 mmHg 95%
17:00 +4°C° 0.8 mm 8 m/s 721 mmHg 94%
18:00 +4°C° 0.5 mm 8 m/s 720 mmHg 94%
19:00 +3°C° 0.5 mm 9 m/s 720 mmHg 93%
20:00 +3°C° 0.5 mm 9 m/s 719 mmHg 92%
21:00 +4°C° 0.5 mm 8 m/s 718 mmHg 91%
22:00 +2°C° 0.5 mm 8 m/s 718 mmHg 89%
23:00 +3°C° 0.5 mm 7 m/s 718 mmHg 88%

Après-demain, 26 Janvier, Mardi

Heure Température Précipitation Vent Pression Humidité
00:00 +2°C° 0 mm 7 m/s 717 mmHg 88%
01:00 -1°C° 0 mm 7 m/s 717 mmHg 88%
02:00 -2°C° 0 mm 7 m/s 717 mmHg 89%
03:00 -2°C° 0.2 mm 7 m/s 717 mmHg 89%
04:00 -3°C° 0.2 mm 7 m/s 717 mmHg 89%
05:00 -4°C° 0.2 mm 8 m/s 717 mmHg 90%
06:00 -4°C° 0.1 mm 8 m/s 718 mmHg 92%
07:00 -3°C° 0.1 mm 7 m/s 718 mmHg 93%
08:00 -3°C° 0.1 mm 7 m/s 719 mmHg 95%
09:00 -5°C° 0.8 mm 9 m/s 719 mmHg 94%
10:00 -5°C° 0.8 mm 10 m/s 720 mmHg 93%
11:00 -6°C° 0.8 mm 12 m/s 721 mmHg 92%
12:00 -6°C° 0.4 mm 12 m/s 722 mmHg 91%
13:00 -6°C° 0.4 mm 12 m/s 723 mmHg 89%
14:00 -6°C° 0.4 mm 12 m/s 724 mmHg 88%
15:00 -6°C° 0.2 mm 12 m/s 725 mmHg 87%
16:00 -6°C° 0.2 mm 11 m/s 726 mmHg 87%
17:00 -6°C° 0.2 mm 11 m/s 727 mmHg 86%
18:00 -6°C° 0.2 mm 11 m/s 728 mmHg 87%
19:00 -6°C° 0.2 mm 11 m/s 728 mmHg 88%
20:00 -7°C° 0.2 mm 11 m/s 729 mmHg 89%
21:00 -7°C° 0.1 mm 10 m/s 730 mmHg 88%
22:00 -7°C° 0.1 mm 10 m/s 730 mmHg 87%
23:00 -6°C° 0.1 mm 9 m/s 731 mmHg 86%

27 Janvier, Mercredi

Heure Température Précipitation Vent Pression Humidité
00:00 -6°C° 0 mm 9 m/s 731 mmHg 86%
01:00 -6°C° 0 mm 8 m/s 731 mmHg 85%
02:00 -6°C° 0 mm 8 m/s 732 mmHg 85%
03:00 -6°C° 0 mm 8 m/s 732 mmHg 85%
04:00 -6°C° 0 mm 7 m/s 732 mmHg 85%
05:00 -6°C° 0 mm 7 m/s 732 mmHg 84%
06:00 -5°C° 0 mm 6 m/s 733 mmHg 86%
07:00 -5°C° 0 mm 6 m/s 733 mmHg 87%
08:00 -6°C° 0 mm 6 m/s 733 mmHg 89%
09:00 -5°C° 0 mm 6 m/s 734 mmHg 87%
10:00 -5°C° 0 mm 6 m/s 734 mmHg 85%
11:00 -4°C° 0 mm 6 m/s 734 mmHg 84%
12:00 -4°C° 0 mm 6 m/s 734 mmHg 82%
13:00 -4°C° 0 mm 5 m/s 734 mmHg 81%
14:00 -4°C° 0 mm 5 m/s 734 mmHg 80%
15:00 -3°C° 0 mm 4 m/s 734 mmHg 81%
16:00 -4°C° 0 mm 4 m/s 735 mmHg 82%
17:00 -4°C° 0 mm 3 m/s 735 mmHg 83%
18:00 -5°C° 0 mm 3 m/s 735 mmHg 85%
19:00 -5°C° 0 mm 3 m/s 735 mmHg 86%
20:00 -6°C° 0 mm 3 m/s 735 mmHg 88%
21:00 -6°C° 0 mm 3 m/s 735 mmHg 87%
22:00 -6°C° 0 mm 3 m/s 735 mmHg 87%
23:00 -6°C° 0 mm 3 m/s 735 mmHg 87%

28 Janvier, Jeudi

Heure Température Précipitation Vent Pression Humidité
00:00 -6°C° 0 mm 3 m/s 735 mmHg 88%
01:00 -5°C° 0 mm 2 m/s 735 mmHg 88%
02:00 -5°C° 0 mm 2 m/s 735 mmHg 89%
03:00 -5°C° 0 mm 2 m/s 735 mmHg 90%
04:00 -6°C° 0 mm 2 m/s 735 mmHg 91%
05:00 -6°C° 0 mm 2 m/s 735 mmHg 91%
06:00 -6°C° 0 mm 2 m/s 735 mmHg 91%
07:00 -6°C° 0 mm 2 m/s 735 mmHg 91%
08:00 -6°C° 0 mm 2 m/s 736 mmHg 92%
09:00 -5°C° 0 mm 2 m/s 736 mmHg 89%
10:00 -4°C° 0 mm 2 m/s 736 mmHg 86%
11:00 -4°C° 0 mm 2 m/s 736 mmHg 84%
12:00 -3°C° 0 mm 2 m/s 735 mmHg 82%
13:00 -3°C° 0 mm 2 m/s 735 mmHg 81%
14:00 -2°C° 0 mm 3 m/s 735 mmHg 79%
15:00 -3°C° 0 mm 2 m/s 735 mmHg 83%
16:00 -4°C° 0 mm 2 m/s 735 mmHg 86%
17:00 -5°C° 0 mm 2 m/s 735 mmHg 89%
18:00 -5°C° 0 mm 2 m/s 735 mmHg 90%
19:00 -5°C° 0 mm 2 m/s 735 mmHg 91%
20:00 -4°C° 0 mm 1 m/s 735 mmHg 93%

29 Janvier, Vendredi

Heure Température Précipitation Vent Pression Humidité
Voir plus

Nous avons besoin de votre consentement

Meteoprog et ses fournisseurs de services peuvent stocker et accéder à des données personnelles telles que des cookies, des identifiants d'appareils ou d'autres technologies similaires sur votre appareil et traiter ces données pour personnaliser le contenu et les publicités, ainsi que pour fournir des fonctionnalités de médias sociaux et analyser le trafic.

  • Stocker et/ou accéder à des informations sur votre appareil

    Des cookies, des identifiants d'appareils ou d'autres informations peuvent être stockés ou accessibles sur votre appareil aux fins indiquées ci-dessus.

  • Annonces et contenus personnalisés, mesure des annonces et des contenus, connaissance de l'audience et développement de produits

    Les annonces et le contenu peuvent être personnalisés en fonction d'un profil. D'autres données peuvent être ajoutées pour mieux personnaliser les annonces et le contenu. Les performances des publicités et du contenu peuvent être mesurées. Il est possible d'obtenir des informations sur le public qui a vu les publicités et le contenu. Ces données peuvent être utilisées pour développer ou améliorer l'expérience de l'utilisateur, les systèmes et les logiciels.

En cliquant sur "J'accepte", vous autorisez l'utilisation de cookies, des identifiants d'appareils, des balises web ou d'autres technologies similaires. Vos paramètres peuvent être modifiés dans le navigateur de votre appareil.

Dans certains cas, des intérêts légitimes peuvent être invoqués plutôt qu'un consentement. Vous pouvez en savoir plus à ce sujet dans notre Politique de confidentialité et de cookies.